Find Kosmos-1156

NORAD ID: 11691 Int'l Des: 1980-012 Owner: GUKOSR Country: SU operational
LEOCIRCULAR

Live-Position

3D-Globus wird geladen...

Über Kosmos-1156

Beschreibung wird geladen...

Nächste Überflüge

Passes for default location (London). Set your location on the main map for personalized predictions.

Höhenverlauf

Loading altitude history...

Zweizeiliger Elementsatz

1 11691U 80012A 26107.13892654 -.00000015 00000-0 49334-5 0 9998
2 11691 74.0176 112.6230 0048576 5.3408 60.0116 12.56898481118714
Epoch: 17. Apr. 2026 • Age: 16 hours

Aktueller Status

Höhe 1475.0 km
Geschwindigkeit 7.11 km/s
Subsatellitenpunkt 5.27°N, 156.4°E
Startdatum 11. Feb. 1980
Alter 46.1 years
Typ other

Technische Details

Klassifizierung Payload
Masse 60.00 kg
Trockenmasse 60.00 kg
Gesamtmasse 60.00 kg
Länge 0.80 m
Durchmesser 0.80 m
Spannweite 0.80 m
Form Poly
Hersteller NPOPM
Bus-Typ Strela-1 11F625
Phasenstatus In Orbit
Besitzer/Staat GUKOSR/SU

Most Searched